Dewpoint
14 12 13 11 11 11 11 10 10 9 9 10 10 11 12 12 12 12 12 5 -6 6 12 14 13 12 13 11 9 8 7 8 12 12 11 10 6 2 3 7 10 12 12
15 13 15 11 12 11 11 11 10 9 9 7 7 9 9 10 10 11 11 1 -1 9 14 14 10 9 7 2 5 4 2 2 4 5 4 -0 -1 -2 -2 -1 -1 2 5
14 14 14 11 13 12 11 11 9 9 9 8 7 8 9 9 9 10 11 1 4 12 14 11 2 -2 2 0 -1 -0 -2 -2 -2 -1 -1 -2 -1 -1 -1 -1 -2 -3 -3
14 13 13 11 12 12 11 10 10 10 10 9 9 9 9 9 8 12 9 5 10 13 13 5 -3 -4 -3 -0 -3 -3 -1 -1 -1 -1 -0 -0 -1 -1 -1 -1 -0 -0 -1
14 11 11 11 10 11 10 11 10 10 10 10 9 8 9 10 9 12 9 8 11 13 13 2 -4 -4 -3 -3 -0 1 1 1 1 1 -0 -1 -1 -1 -0 -1 0 1 1
14 12 10 10 10 9 9 9 9 10 10 10 10 10 10 11 11 9 11 6 11 13 13 3 -3 -4 -2 1 2 3 3 1 1 0 -0 0 1 1 1 1 1 1 1
15 13 11 10 9 8 8 8 8 9 8 9 10 10 10 10 12 14 10 3 11 13 12 6 -3 -3 -0 1 2 3 3 2 1 0 1 1 2 2 2 2 2 2 1
14 14 13 12 9 8 8 9 9 9 8 7 8 8 9 10 11 13 13 3 11 11 12 6 -2 -2 0 1 2 2 2 2 1 1 2 2 2 3 3 2 2 3 3
11 13 14 12 11 10 11 11 11 10 8 6 6 8 9 9 11 11 12 8 6 8 12 3 0 -1 0 1 1 2 2 3 2 1 2 2 3 3 3 3 4 5 6
11 11 13 13 13 12 12 12 12 10 8 9 11 10 9 10 11 11 12 12 13 13 13 7 2 0 -0 1 2 2 3 3 3 3 2 3 4 4 4 5 5 6 6
11 11 10 10 12 12 13 13 12 11 8 9 10 13 9 10 11 12 13 13 13 11 12 13 4 0 0 1 2 3 3 3 3 3 2 3 4 5 6 6 6 6 7
11 11 11 10 11 10 11 11 12 11 8 8 9 11 3 8 12 12 13 12 12 10 8 13 10 1 0 1 2 2 3 4 3 3 3 4 5 6 6 5 6 6 6
11 12 11 11 11 10 10 10 12 11 9 8 8 11 9 10 11 12 13 12 13 12 12 11 11 4 1 1 1 2 3 4 4 4 4 4 6 8 7 6 5 6 7
8 10 11 10 9 10 11 11 11 11 10 9 8 8 7 8 7 11 13 13 13 13 10 12 10 4 2 1 1 1 2 3 4 5 6 7 8 9 9 8 7 6 5
6 9 9 9 8 7 9 10 10 11 11 8 10 9 5 7 7 7 10 12 13 12 11 12 12 6 2 1 0 -0 0 2 4 5 7 8 9 9 8 8 8 7 7
5 9 9 9 7 7 7 7 7 9 9 9 7 5 5 8 8 7 7 10 12 12 12 11 11 9 4 1 0 -0 -0 1 3 5 6 8 9 8 9 9 9 9 8
-2 3 6 8 8 7 6 6 7 7 6 5 5 4 4 8 8 8 6 7 9 13 12 10 11 8 6 3 2 1 0 1 4 5 7 9 9 9 9 9 9 9 9
-4 -2 -1 1 5 6 7 7 7 6 6 6 6 6 5 4 5 6 9 9 8 9 13 11 8 9 6 3 2 1 2 3 3 5 9 10 9 9 9 9 9 9 9
-4 -3 -1 2 5 5 6 7 7 7 6 7 7 7 7 6 5 6 8 10 11 9 10 8 7 8 6 3 1 1 3 3 3 6 7 9 9 9 10 9 9 9 9
-6 -4 0 3 6 7 7 8 8 8 7 7 7 8 9 8 8 9 8 9 11 11 11 8 7 6 5 4 3 1 4 5 5 7 8 9 10 10 10 9 9 8 9
-6 -2 2 4 7 7 7 8 8 7 7 8 8 8 9 9 9 10 10 10 11 11 11 9 8 9 8 4 5 7 6 6 7 8 9 10 10 10 10 9 9 9 8
1 6 5 6 6 7 8 8 9 9 8 8 8 8 8 9 9 10 11 10 11 10 10 7 7 6 5 4 8 8 7 7 8 8 9 10 10 10 10 10 9 9 8
3 4 5 6 7 7 7 8 9 9 8 8 8 8 8 9 9 9 12 11 12 11 8 5 6 7 6 4 8 8 9 9 8 8 9 9 9 9 10 10 9 9 9
5 6 6 6 5 5 6 7 9 9 9 10 8 7 9 10 9 9 10 11 11 11 8 7 5 3 5 5 8 8 8 9 9 8 8 7 9 10 10 10 9 9 9
8 8 8 9 8 8 7 9 9 9 9 8 8 10 9 9 9 9 10 10 9 9 10 9 5 4 6 8 8 7 8 9 9 9 9 9 8 8 8 7 8 9 9
7 7 8 7 8 9 9 9 9 9 9 9 10 10 10 11 11 11 10 9 10 10 10 10 9 8 6 7 8 8 9 8 9 9 9 9 8 8 8 8 8 9 9
Wind_Speed
13 14 20 22 22 21 18 17 17 16 15 14 14 13 12 11 9 7 5 6 11 15 13 15 14 16 15 13 12 12 12 15 15 14 10 10 9 10 10 11 13 15 14
9 12 18 22 18 19 21 19 17 15 14 13 13 13 12 11 10 9 7 8 12 15 13 13 11 15 12 11 13 12 12 12 11 11 9 8 8 8 9 8 7 10 10
4 11 17 21 19 19 19 18 16 15 14 12 11 12 13 12 11 10 9 9 16 14 12 11 12 13 13 13 13 12 12 11 10 9 8 8 8 8 8 8 8 7 8
5 13 19 21 20 19 19 17 16 15 14 12 11 11 11 11 11 12 11 12 14 14 10 9 12 13 13 13 13 12 11 10 10 9 8 7 8 8 8 8 8 8 8
8 13 17 20 20 18 17 16 16 15 14 13 12 11 11 11 12 13 13 14 14 15 10 10 13 14 14 14 12 11 10 9 9 9 8 8 8 8 8 8 8 8 7
9 10 15 18 19 18 17 17 16 15 14 13 13 12 13 12 11 17 16 17 17 16 12 12 13 14 14 13 11 9 9 9 9 8 8 8 7 7 7 8 8 7 7
11 12 14 16 17 17 17 16 15 14 14 15 15 15 15 14 14 14 16 20 19 17 15 15 15 15 14 12 10 9 8 8 8 9 7 6 6 6 6 7 7 7 7
10 13 15 15 16 17 17 16 16 16 17 17 16 17 17 16 17 15 17 20 20 19 16 19 17 16 14 11 10 8 8 9 8 8 7 5 5 5 5 6 6 7 7
14 15 17 18 20 23 23 22 21 19 18 17 18 18 18 18 18 19 17 19 21 22 17 21 19 18 15 12 10 8 8 8 7 7 6 4 4 4 4 5 5 6 6
13 15 19 20 22 23 22 21 19 19 17 17 16 18 19 19 19 20 18 20 20 22 21 21 20 19 17 14 11 9 8 8 7 6 5 4 3 3 3 3 3 4 5
15 16 19 19 21 20 21 22 21 18 18 17 14 17 19 19 20 20 20 23 22 22 23 20 23 21 19 16 14 11 10 9 8 7 5 4 3 2 2 2 2 2 3
16 19 21 20 20 20 17 18 19 19 18 16 14 13 16 19 19 21 22 25 25 20 24 24 21 22 21 19 17 16 13 11 9 8 6 4 3 2 1 0 1 1 1
16 19 21 21 22 19 18 14 15 18 17 16 10 5 10 14 18 21 24 26 27 23 24 24 24 24 23 22 20 17 15 13 11 10 8 6 5 4 2 2 1 1 1
19 17 17 17 15 18 16 15 15 16 17 16 11 13 15 12 14 21 26 30 31 28 27 27 28 26 26 23 21 20 18 16 14 11 9 9 8 5 2 0 3 2 2
17 20 18 18 17 19 19 18 19 18 19 22 23 24 23 28 22 17 26 32 34 33 31 32 31 29 27 25 24 22 21 19 17 15 13 11 8 6 5 3 3 3 3
15 18 20 21 21 21 20 21 22 24 26 29 29 29 31 31 29 29 24 27 37 38 36 36 34 30 28 27 26 24 22 21 19 17 16 15 12 10 7 6 5 5 6
18 16 17 21 23 23 24 24 24 24 25 27 27 26 30 38 36 28 32 27 28 42 42 36 36 32 30 29 28 26 23 22 22 19 17 17 15 14 11 9 8 8 8
24 20 20 24 23 24 24 23 22 23 24 26 28 27 27 33 40 35 34 36 33 20 48 38 33 33 32 31 30 28 26 24 24 22 19 19 18 17 16 13 13 12 11
27 22 21 22 21 21 22 22 23 24 27 26 26 25 28 30 34 39 40 40 40 33 39 46 37 39 36 34 32 30 27 26 26 24 23 22 21 20 18 16 15 14 13
28 23 22 22 20 19 21 22 25 28 30 30 28 27 26 30 34 36 40 40 44 42 39 44 43 36 35 36 33 30 27 27 25 26 24 23 24 22 21 19 18 18 15
23 24 22 20 18 21 21 23 27 30 31 30 31 31 29 31 33 35 38 39 41 45 40 42 43 39 39 36 31 30 28 29 27 28 25 28 27 26 23 23 22 20 17
18 12 15 18 20 20 21 23 26 27 28 30 31 29 28 30 28 34 36 40 38 37 37 48 45 40 38 40 33 30 25 30 30 31 29 29 30 28 26 25 26 23 21
16 15 16 17 18 19 21 22 24 26 30 31 32 31 30 29 31 26 37 43 46 44 36 38 36 45 45 41 36 25 13 15 24 34 33 32 32 31 28 27 25 27 26
8 8 13 16 19 21 23 24 25 26 27 30 33 35 26 28 29 34 33 32 33 34 33 34 38 37 40 39 37 38 31 13 12 11 26 33 33 31 29 29 29 31 29
3 1 4 3 7 14 15 15 17 18 19 30 28 23 24 31 34 33 39 32 28 31 33 39 41 40 44 43 37 37 37 37 24 14 9 14 26 32 34 35 35 35 34
2 2 1 5 3 2 1 6 12 11 7 16 5 15 13 20 26 32 22 24 22 24 22 29 36 35 37 40 42 39 40 40 40 35 29 28 30 30 31 35 38 39 37
Wind_Direction
197 184 186 185 182 185 189 186 184 182 185 187 188 191 192 191 189 186 175 166 159 147 143 142 145 134 137 141 147 134 130 127 123 126 115 108 105 94 102 112 110 105 99
186 189 186 187 186 188 192 192 191 192 191 192 196 197 198 200 200 194 185 168 161 151 159 157 166 158 158 150 141 135 132 132 124 117 112 100 95 90 98 106 98 109 111
195 201 188 186 185 189 188 193 197 195 194 196 199 197 198 196 195 194 185 167 156 158 168 165 162 147 154 138 136 136 134 127 121 116 108 100 95 89 87 86 86 87 94
228 188 187 186 190 190 190 192 195 198 200 202 199 200 197 197 191 189 180 162 162 173 180 170 160 153 151 148 140 135 128 124 119 113 106 100 97 92 87 84 82 80 84
203 191 191 192 194 197 195 194 195 201 204 204 205 205 204 204 196 193 186 176 178 183 187 177 166 159 154 150 144 140 134 131 126 120 114 104 96 88 82 78 80 83 79
193 194 200 198 199 202 202 204 203 204 207 211 211 210 206 211 216 203 190 184 184 192 191 184 175 167 161 156 152 150 142 134 131 125 118 109 100 89 81 76 76 76 73
194 195 207 205 204 203 204 207 210 214 216 218 221 219 214 211 205 198 192 191 191 196 200 192 183 177 172 165 159 153 152 145 133 130 123 112 102 88 77 74 73 70 66
221 212 208 207 203 203 207 211 212 216 222 221 222 224 222 216 212 210 202 200 192 200 204 192 186 184 183 176 168 160 155 150 143 141 130 117 103 92 81 73 69 70 69
231 226 222 206 204 206 208 209 211 214 219 219 219 216 221 221 217 217 216 203 206 206 198 190 188 188 191 188 180 172 168 165 157 148 137 127 110 96 88 84 84 81 69
217 222 234 228 221 216 218 219 221 221 222 224 226 222 220 223 222 223 218 208 209 200 190 194 193 194 195 194 191 184 182 180 175 165 153 142 124 109 91 81 84 88 79
214 219 228 234 235 239 233 225 226 228 230 236 236 229 224 220 221 224 222 216 219 213 200 200 197 197 199 198 199 198 196 192 191 187 179 163 151 135 97 67 89 99 93
241 225 224 228 236 242 238 250 240 238 241 238 242 240 220 213 222 226 225 221 232 236 203 202 202 199 200 203 205 205 207 205 202 200 195 185 180 168 170 130 125 101 89
273 244 230 226 229 238 246 252 240 236 238 234 230 258 242 239 225 225 224 225 235 238 207 208 210 205 204 206 211 215 214 214 210 206 208 203 193 185 208 224 213 266 288
265 257 246 239 239 247 240 243 239 235 228 236 221 268 260 268 271 242 228 225 231 239 216 217 216 212 207 209 213 219 221 220 219 213 212 208 205 204 195 325 268 275 266
270 245 236 237 236 242 244 243 243 234 230 220 246 257 255 253 256 270 255 233 235 239 230 218 219 212 212 211 215 219 222 222 225 222 216 217 218 216 213 242 294 296 306
267 244 240 242 245 242 243 245 248 249 251 252 258 257 251 247 252 257 260 249 240 240 236 226 223 217 217 217 218 220 224 225 225 226 226 225 224 213 219 239 261 292 305
258 250 249 250 251 249 251 252 249 248 249 256 263 263 257 247 251 248 250 246 246 239 244 227 228 223 224 224 223 224 224 226 228 228 229 224 222 222 233 248 255 274 298
254 254 252 245 243 247 248 250 247 245 250 261 270 274 263 256 247 248 249 246 240 254 233 220 217 229 227 226 227 226 226 227 231 229 227 227 229 232 233 235 256 268 285
247 250 257 240 234 242 253 252 248 254 260 262 266 271 267 258 250 250 247 249 242 243 224 210 217 227 227 229 229 229 230 232 232 232 233 232 230 233 238 234 250 258 275
244 250 251 238 243 250 257 255 254 259 263 269 273 278 270 256 259 261 251 246 243 235 221 205 217 226 232 236 237 235 230 235 232 233 235 232 233 237 241 234 242 255 263
237 249 232 230 244 253 254 255 257 262 267 273 275 280 277 265 267 261 248 241 241 231 226 219 210 227 235 236 241 239 235 235 234 234 237 236 239 242 238 238 243 247 258
223 217 215 232 242 251 257 261 264 267 271 276 280 276 271 271 270 263 251 236 236 214 215 208 211 213 232 235 231 239 243 240 237 237 236 239 243 244 242 245 241 242 255
200 220 226 236 247 254 260 264 265 269 272 273 275 279 278 270 270 269 233 232 230 215 212 200 212 226 229 230 228 226 223 230 240 242 239 241 243 240 244 239 239 248 253
190 224 241 246 254 258 263 263 263 270 276 280 287 281 277 266 265 261 250 239 218 212 218 206 213 229 229 233 228 228 231 244 222 238 239 238 239 238 238 243 248 251 256
75 215 236 258 287 298 284 272 264 266 277 291 292 291 274 265 269 259 242 240 229 236 230 217 215 225 229 233 235 234 233 237 239 228 235 240 243 243 247 250 252 252 256
206 219 259 276 272 29 87 271 232 242 290 18 332 260 290 259 231 225 215 211 229 225 229 229 220 227 235 238 240 238 238 235 239 241 253 266 270 265 257 254 252 250 251
Height
1499 1501 1504 1508 1510 1513 1515 1516 1519 1520 1522 1523 1524 1526 1527 1528 1530 1531 1532 1533 1534 1536 1537 1537 1538 1540 1541 1542 1542 1543 1544 1544 1545 1545 1546 1546 1546 1546 1546 1546 1546 1546 1546
1499 1501 1504 1507 1510 1513 1514 1516 1518 1521 1522 1524 1524 1526 1527 1528 1530 1531 1532 1533 1534 1536 1537 1538 1538 1540 1541 1541 1543 1544 1545 1545 1546 1546 1547 1547 1547 1547 1548 1548 1547 1547 1547
1501 1502 1504 1508 1510 1513 1515 1517 1519 1521 1522 1524 1526 1526 1527 1528 1530 1531 1533 1534 1535 1537 1537 1538 1538 1539 1541 1542 1543 1544 1545 1546 1546 1547 1547 1548 1548 1548 1548 1548 1548 1548 1549
1502 1502 1504 1508 1511 1513 1515 1517 1520 1521 1523 1524 1526 1526 1527 1528 1530 1531 1533 1535 1537 1537 1538 1538 1539 1540 1541 1543 1544 1545 1546 1546 1547 1547 1548 1548 1549 1549 1548 1549 1549 1549 1549
1502 1503 1504 1507 1511 1513 1515 1517 1519 1521 1523 1524 1525 1526 1527 1528 1529 1531 1533 1535 1536 1537 1539 1540 1540 1541 1542 1544 1545 1546 1546 1547 1547 1548 1548 1549 1549 1549 1549 1549 1550 1550 1550
1504 1505 1506 1507 1510 1513 1515 1517 1518 1520 1522 1524 1525 1526 1527 1528 1529 1530 1532 1534 1535 1537 1539 1540 1541 1542 1543 1544 1546 1547 1547 1548 1548 1549 1549 1550 1550 1550 1550 1550 1550 1550 1550
1504 1505 1507 1508 1509 1513 1514 1516 1518 1519 1520 1521 1524 1525 1526 1527 1529 1530 1532 1533 1535 1536 1538 1540 1541 1542 1543 1545 1546 1547 1548 1548 1549 1549 1550 1551 1550 1550 1550 1551 1551 1551 1551
1504 1506 1506 1509 1509 1511 1514 1515 1516 1517 1519 1519 1521 1523 1525 1526 1527 1529 1531 1532 1534 1535 1537 1538 1540 1542 1544 1545 1547 1548 1549 1549 1549 1550 1551 1551 1551 1551 1551 1551 1551 1551 1551
1505 1505 1505 1506 1508 1508 1509 1511 1513 1514 1515 1517 1519 1520 1523 1525 1527 1528 1529 1531 1533 1534 1535 1537 1539 1541 1543 1545 1546 1548 1549 1549 1550 1550 1551 1551 1552 1552 1551 1551 1550 1551 1552
1503 1504 1505 1505 1507 1508 1509 1511 1513 1514 1515 1517 1517 1518 1521 1523 1525 1527 1528 1530 1531 1533 1535 1536 1538 1540 1541 1543 1546 1547 1548 1549 1550 1551 1551 1551 1552 1552 1552 1552 1551 1551 1551
1500 1501 1504 1505 1506 1507 1508 1510 1512 1513 1514 1515 1516 1517 1518 1520 1522 1525 1527 1529 1529 1530 1533 1536 1536 1538 1540 1541 1543 1546 1547 1548 1549 1550 1550 1551 1551 1552 1552 1552 1551 1551 1551
1497 1497 1500 1502 1503 1506 1507 1508 1510 1511 1513 1513 1515 1516 1516 1517 1520 1524 1525 1527 1528 1529 1530 1534 1535 1537 1538 1540 1541 1543 1545 1546 1547 1548 1549 1550 1550 1551 1551 1551 1551 1550 1551
1496 1496 1497 1499 1501 1504 1506 1507 1508 1509 1510 1512 1513 1515 1517 1518 1519 1521 1523 1526 1527 1528 1529 1530 1533 1535 1536 1538 1540 1541 1543 1545 1546 1547 1548 1548 1549 1549 1550 1550 1550 1550 1550
1493 1494 1496 1498 1498 1501 1503 1504 1505 1507 1508 1510 1512 1514 1515 1516 1517 1519 1521 1523 1524 1526 1527 1528 1530 1532 1534 1535 1537 1539 1540 1542 1544 1545 1546 1547 1547 1548 1549 1549 1549 1549 1548
1490 1491 1493 1495 1496 1498 1500 1501 1502 1503 1505 1506 1507 1508 1510 1511 1512 1513 1516 1519 1521 1522 1525 1526 1527 1529 1532 1532 1534 1536 1537 1539 1541 1543 1543 1545 1545 1546 1547 1548 1548 1548 1548
1486 1486 1488 1490 1492 1493 1494 1496 1497 1500 1501 1502 1502 1503 1504 1505 1506 1507 1509 1511 1516 1518 1520 1522 1524 1525 1529 1530 1531 1532 1534 1536 1537 1539 1541 1542 1543 1543 1545 1545 1546 1547 1547
1481 1481 1483 1485 1486 1488 1489 1490 1492 1494 1496 1497 1497 1497 1497 1499 1500 1502 1504 1504 1506 1511 1514 1517 1520 1522 1525 1528 1528 1530 1531 1532 1534 1535 1537 1539 1540 1541 1542 1543 1544 1545 1546
1475 1476 1478 1480 1481 1483 1485 1485 1487 1490 1491 1492 1493 1492 1492 1492 1493 1495 1498 1499 1500 1502 1506 1508 1511 1517 1521 1523 1525 1526 1527 1528 1531 1531 1533 1535 1537 1537 1538 1539 1541 1542 1543
1469 1471 1472 1474 1475 1478 1480 1481 1483 1483 1484 1485 1486 1487 1486 1486 1487 1488 1490 1493 1495 1495 1497 1498 1510 1515 1514 1520 1521 1523 1523 1525 1526 1528 1528 1530 1533 1534 1535 1536 1537 1538 1539
1463 1466 1467 1469 1471 1473 1474 1476 1477 1477 1477 1478 1479 1479 1480 1481 1481 1480 1482 1485 1487 1490 1489 1492 1503 1510 1510 1515 1519 1519 1519 1521 1522 1522 1523 1526 1528 1529 1530 1531 1533 1534 1534
1459 1460 1462 1465 1468 1469 1469 1470 1470 1471 1471 1472 1472 1472 1473 1473 1472 1470 1472 1476 1479 1481 1481 1482 1495 1505 1508 1513 1515 1516 1513 1515 1515 1516 1518 1521 1522 1524 1525 1526 1528 1528 1529
1456 1456 1458 1462 1463 1465 1465 1466 1466 1466 1465 1466 1466 1465 1465 1465 1465 1464 1465 1467 1469 1475 1476 1478 1488 1494 1499 1505 1508 1512 1509 1510 1508 1509 1511 1514 1516 1518 1519 1521 1522 1523 1524
1452 1455 1457 1459 1459 1460 1460 1461 1460 1460 1460 1460 1460 1459 1458 1458 1458 1460 1454 1457 1460 1465 1469 1475 1481 1491 1493 1498 1502 1505 1505 1501 1502 1502 1505 1507 1510 1511 1513 1515 1517 1518 1518
1449 1452 1454 1455 1456 1455 1455 1454 1455 1455 1456 1455 1452 1450 1451 1451 1452 1454 1457 1457 1451 1457 1467 1467 1478 1483 1487 1490 1496 1497 1498 1497 1496 1498 1498 1500 1504 1505 1507 1509 1511 1512 1512
1449 1453 1454 1453 1452 1449 1449 1449 1449 1451 1453 1449 1444 1442 1443 1443 1443 1445 1448 1452 1454 1457 1461 1464 1473 1479 1484 1486 1487 1489 1490 1492 1493 1494 1492 1495 1498 1500 1501 1502 1504 1505 1505
1452 1452 1450 1450 1450 1449 1446 1445 1446 1449 1450 1446 1440 1439 1439 1436 1437 1438 1443 1447 1451 1454 1456 1460 1467 1473 1477 1478 1480 1482 1484 1485 1486 1488 1489 1491 1493 1494 1495 1496 1497 1498 1498